Regional Weather Roundup
Issued by NWS

Home | Current Version | Previous Version | Text Only | Print | Product List | Glossary On
Versions: 1 2 3 4 5 6 7 8 9 10 11 12 13 14 15 16 17 18 19 20 21 22 23 24 25 26 27 28 29 30 31 32 33 34 35 36 37 38 39 40 41 42 43 44 45 46 47 48 49 50
000
ASUS43 KMKX 211621
RWRWI

WISCONSIN REGIONAL WEATHER ROUNDUP
NATIONAL WEATHER SERVICE MILWAUKEE/SULLIVAN WI
1100 AM CDT MON APR 21 2014

NOTE: "FAIR" INDICATES FEW OR NO CLOUDS BELOW 12,000 FEET WITH NO
SIGNIFICANT WEATHER AND/OR OBSTRUCTIONS TO VISIBILITY.

WIZ001-002-006>008-014>016-023>028-211700-
NORTHWEST WISCONSIN

CITY           SKY/WX    TMP DP  RH WIND       PRES   REMARKS
SUPERIOR ARPT  SUNNY     64  35  34 NW16G25   29.84S
ASHLAND        PTSUNNY   55  43  63 W9        29.84F
HAYWARD        FAIR      63  38  39 VRB6      29.86F
SIREN          SUNNY     66  32  28 NW14G20   29.88S
RICE LAKE      MOSUNNY   63  47  54 W8        29.90S
LADYSMITH      CLOUDY    56  56  98 W7        29.89S FOG
EAU CLAIRE     CLOUDY    68  52  56 W12G22    29.88F
MENOMONIE      PTSUNNY   65  49  55 W12       29.89F
NEW RICHMOND   MOSUNNY   65  37  34 NW16      29.91S
OSCEOLA        MOSUNNY   66  37  33 NW10G18   29.93F
$$

WIZ003>005-009-010-017-018-211700-
NORTH CENTRAL WISCONSIN

CITY           SKY/WX    TMP DP  RH WIND       PRES   REMARKS
WOODRUFF       CLOUDY    57  54  89 W7        29.85F FOG
RHINELANDER    CLOUDY    53  51  93 SW8       29.86F FOG
EAGLE RIVER    PTSUNNY   52  52 100 W8        29.84F FOG
LAND O LAKES   CLOUDY    54  49  85 SW3       29.85F HAZE
PHILLIPS       FOG       52  52 100 SW6       29.86F VSB 1/2
TOMAHAWK       CLOUDY    54  53  97 CALM      29.86F FOG
MEDFORD        CLOUDY    59  54  85 W9        29.87F
MERRILL        CLOUDY    59  54  83 CALM      29.87F
$$

WIZ029-030-035-036-043>047-211700-
CENTRAL WISCONSIN

CITY           SKY/WX    TMP DP  RH WIND       PRES   REMARKS
WAUSAU         CLOUDY    62  53  72 SW8       29.86F
MOSINEE        PTSUNNY   57  57 100 SW7       29.89F
MARSHFIELD     CLOUDY    62  55  77 W7        29.88F
STEVENS POINT  CLOUDY    59  53  83 W8        29.89F
WAUPACA        DRIZZLE   63  55  77 W5        29.88F
WAUTOMA        CLOUDY    63  56  78 SW8       29.89F
WISC RAPIDS    CLOUDY    59  56  89 SW8       29.90S
CAMP DOUGLAS   PTSUNNY   63  63 100 SW5       29.88F
$$

WIZ011>013-019>022-031-037>040-048>050-211700-
NORTHEAST WISCONSIN

CITY           SKY/WX    TMP DP  RH WIND       PRES   REMARKS
ANTIGO         CLOUDY    55  52  90 SW7       29.88S FOG
STURGEON BAY   CLOUDY    48  45  87 CALM      29.88F
GREEN BAY      CLOUDY    59  52  77 SW6       29.88F HAZE
MANITOWOC      CLOUDY    53  45  74 VRB3      29.88F
APPLETON       PTSUNNY   61  54  77 SW9       29.89F
CLINTONVILLE   DRIZZLE   55  54  94 SW3       29.89R
OSHKOSH        CLOUDY    65  52  62 SW6       29.87F
$$

WIZ032>034-041-042-053>061-211700-
SOUTHWEST WISCONSIN

CITY           SKY/WX    TMP DP  RH WIND       PRES   REMARKS
LA CROSSE      CLOUDY    60  55  83 SW8       29.90R
SPARTA         DRIZZLE   62  57  84 NW7       29.91R
VIROQUA        PTSUNNY   60  58  92 SW9       29.90F
BOSCOBEL       CLOUDY    67  57  70 SW6       29.91F
PRAIRIE DU CHI CLOUDY    60  57  90 CALM      29.92S
PLATTEVILLE    FAIR      67  56  68 NW6       29.92R
$$

WIZ056-057-062-063-064-067-068-211700-
SOUTH CENTRAL WISCONSIN

CITY           SKY/WX    TMP DP  RH WIND       PRES   REMARKS
BARABOO/DELLS  CLOUDY    64  55  71 SW8       29.89F
LONE ROCK      CLOUDY    65  56  72 W7        29.90F
WATERTOWN      LGT RAIN  57  55  92 SW7       29.91R
MADISON        LGT RAIN  59  56  89 E3        29.90F FOG
MIDDLETON      CLOUDY    64  55  71 NW3       29.90F
MONROE         DRIZZLE   64  53  66 NW6       29.91F
JANESVILLE     CLOUDY    66  48  52 W12       29.91S
$$

WIZ051-052-058>065-066-070>072-211700-
SOUTHEAST WISCONSIN

CITY           SKY/WX    TMP DP  RH WIND       PRES   REMARKS
MILWAUKEE      PTSUNNY   73  48  41 SW9       29.89F
WAUKESHA       PTSUNNY   66  48  52 W9        29.90F
MILWAUKEE/TIMM SUNNY     72  48  43 NW7       29.89S
RACINE         PTSUNNY   72  48  42 W7        29.89F
BURLINGTON     PTSUNNY   67  47  48 SW9       29.89S
KENOSHA        CLOUDY    70  48  45 SW7       29.89F
FOND DU LAC    CLOUDY    67  53  61 W5        29.88F
SHEBOYGAN      PTSUNNY   67  51  56 CALM      29.87F
WEST BEND      HVY RAIN  61  54  77 SW5       29.90R
JUNEAU         CLOUDY    64  51  63 SW8       29.91S
$$

LSZ147-162-211700-
LAKE SUPERIOR

STATION/POSITION TIME  TEMP    WIND        PRES    WAVE
                       AIR SEA DIR/SP/G            HT/PER
                 (UTC) (F)     (DEG/KT/KT) (MB)    (FT/S)
DEVILS ISLAND    1600   40     240/  3/  6 1010.7F
PORT WING        1600   50     270/  6/ 10 1010.8S
SAXON HARBOR     1600           CALM  / 12 1010.2S
$$

LMZ867-665-643>646-211700-
LAKE MICHIGAN

STATION/POSITION TIME  TEMP    WIND        PRES    WAVE
                       AIR SEA DIR/SP/G            HT/PER
                 (UTC) (F)     (DEG/KT/KT) (MB)    (FT/S)
NORTHPORT PIER   1500   37     130/  2/  4 1011.5F
SISTER BAY       1539   39     350/  7/  7   N/A
KEWAUNEE LAKESHO 1600   42     170/  5/  7 1012.6F
SHEBOYGAN LAKESH 1600   47     160/  3/  4 1012.3F
PORT WASHINGTON  1500   51      60/  3/  4 1012.5F
MILWAUKEE LAKESH 1600   54     100/  1/  2   N/A
KENOSHA   LAKESH 1600   49     190/  6/ 10   N/A
$$

TC  - TEMPERATURE IN CELSIUS
VSB - VISIBILITY IN STATUTE MILES
WCI - WIND CHILL INDEX
HX  - HEAT INDEX




USA.gov is the U.S. government's official web portal to all federal, state and local government web resources and services.